User: anonymous
Location: Holcomb Observatory
(44.4922°N, 73.1654°W)
Time: 07:06:45
(UTC-04:00)
Language:

SL-16 R/B - Orbit

View from above orbital plane
View from above orbital plane
View from above satellite
View from above satellite

Ground track
Ground track

The orbit data is extracted from the following two-line orbital elements,

1 27006U 01056F   14210.45944434 -.00000072  00000-0 -33897-4 0  1911
2 27006 099.1704 016.4319 0014971 178.5875 239.4260 13.70914775632117
Epoch (UTC): 29 July 2014 11:01:35
Eccentricity: 0.0014971
inclination: 99.1704°
perigee height: 985 km
apogee height: 1007 km
right ascension of ascending node: 16.4319°
argument of perigee: 178.5875°
revolutions per day: 13.70914775
mean anomaly at epoch: 239.4260°
orbit number at epoch: 63211

The dashed part of the orbit path shows where the satellite is in the earth's shadow,  

DLR